EW6456 Weather Reports


Display with metric or nautical units.
time (UTC)temp
F
wind
direction
speed
MPH
gust
MPH
rain 1hr
in
rain 24hr
in
rain mn
in
humidity
%
barometer
mb
20260905001546 92 15 0.0 15.0 0.00 0.00 0.00 16 1001.7
20260905000044 93 335 5.0 12.0 0.00 0.00 0.00 15 1001.7
20260904234543 94 251 0.0 1.0 0.00 0.00 0.00 11 1001.8
20260904233043 95 251 0.0 0.0 0.00 0.00 0.00 10 1001.6
20260904231540 94 292 0.0 0.0 0.00 0.00 0.00 10 1001.6
20260904230100 95 309 0.0 2.0 0.00 0.00 0.00 11 1001.5
20260904224536 95 254 0.0 2.0 0.00 0.00 0.00 10 1001.5
20260904223036 95 120 0.0 2.0 0.00 0.00 0.00 11 1001.5
20260904221534 95 4 0.0 0.0 0.00 0.00 0.00 12 1001.6
20260904220032 94 301 0.0 1.0 0.00 0.00 0.00 12 1001.5
20260904214530 94 309 0.0 0.0 0.00 0.00 0.00 12 1001.5
20260904213030 95 274 0.0 1.0 0.00 0.00 0.00 13 1001.5
20260904211524 94 132 0.0 0.0 0.00 0.00 0.00 14 1001.5
20260904210023 94 296 0.0 0.0 0.00 0.00 0.00 14 1001.6
20260904204521 93 153 0.0 0.0 0.00 0.00 0.00 14 1001.6
20260904203015 92 352 0.0 0.0 0.00 0.00 0.00 15 1001.6
20260904201510 91 75 0.0 0.0 0.00 0.00 0.00 16 1001.7
20260904200009 91 322 0.0 0.0 0.00 0.00 0.00 16 1001.8
20260904194503 90 307 0.0 1.0 0.00 0.00 0.00 17 1002.0
20260904193100 89 182 0.0 0.0 0.00 0.00 0.00 18 1002.2
20260904191555 89 242 0.0 0.0 0.00 0.00 0.00 19 1002.3
20260904190056 88 268 0.0 0.0 0.00 0.00 0.00 19 1002.4
20260904184548 87 185 0.0 0.0 0.00 0.00 0.00 20 1002.6
20260904183051 86 227 0.0 0.0 0.00 0.00 0.00 21 1002.7
20260904181540 84 8 0.0 0.0 0.00 0.00 0.00 23 1002.9
20260904180034 83 238 0.0 0.0 0.00 0.00 0.00 22 1002.9
20260904174530 82 313 0.0 0.0 0.00 0.00 0.00 23 1003.0
20260904173030 82 295 0.0 0.0 0.00 0.00 0.00 25 1003.1
20260904171524 81 293 0.0 0.0 0.00 0.00 0.00 28 1002.9
20260904170019 79 6 0.0 0.0 0.00 0.00 0.00 29 1002.8
20260904164517 77 298 0.0 0.0 0.00 0.00 0.00 31 1003.0
20260904163013 77 226 0.0 0.0 0.00 0.00 0.00 34 1003.0
20260904161508 75 232 0.0 0.0 0.00 0.00 0.00 36 1003.0
20260904160005 75 256 0.0 0.0 0.00 0.00 0.00 35 1003.1
20260904154501 73 110 0.0 0.0 0.00 0.00 0.00 37 1003.0
20260904153107 71 98 0.0 0.0 0.00 0.00 0.00 38 1002.9
20260904151556 68 292 0.0 0.0 0.00 0.00 0.00 41 1003.3
20260904150105 69 226 0.0 0.0 0.00 0.00 0.00 42 1003.2
20260904144553 66 223 0.0 0.0 0.00 0.00 0.00 44 1003.3
20260904143052 65 250 0.0 0.0 0.00 0.00 0.00 43 1003.4
20260904141555 63 273 0.0 0.0 0.00 0.00 0.00 50 1003.2
20260904134550 59 286 0.0 0.0 0.00 0.00 0.00 54 1002.8
20260904133048 58 283 0.0 0.0 0.00 0.00 0.00 55 1002.9
20260904131546 55 301 0.0 0.0 0.00 0.00 0.00 58 1002.8
20260904130056 0 0.0 0.0 0.00 0.00 0.00 1002.4
20260904124540 0 0.0 0.0 0.00 0.00 0.00 1002.4
20260904123031 0 0.0 0.0 0.00 0.00 0.00 1002.4
20260904121527 0 0.0 0.0 0.00 0.00 0.00 1002.5
20260904120107 0 0.0 0.0 0.00 0.00 0.00 1002.6
20260904114548 0 0.0 0.0 0.00 0.00 0.00 1002.7
20260904113018 64 58 0.0 0.0 0.00 0.00 0.00 41 1002.9
20260904111513 64 82 0.0 2.0 0.00 0.00 0.00 40 1002.8
20260904110006 65 81 0.0 0.0 0.00 0.00 0.00 38 1003.1
20260904104509 67 100 0.0 1.0 0.00 0.00 0.00 35 1003.4
20260904103003 66 85 0.0 1.0 0.00 0.00 0.00 34 1003.5
20260904101501 65 79 0.0 0.0 0.00 0.00 0.00 36 1003.7
20260904100057 65 82 0.0 0.0 0.00 0.00 0.00 37 1003.6
20260904094554 65 45 0.0 0.0 0.00 0.00 0.00 37 1003.6
20260904093051 66 56 0.0 0.0 0.00 0.00 0.00 35 1003.9
20260904091552 66 44 0.0 0.0 0.00 0.00 0.00 35 1004.1
20260904090016 65 23 0.0 0.0 0.00 0.00 0.00 36 1004.1
20260904084513 67 68 0.0 0.0 0.00 0.00 0.00 34 1004.2
20260904083044 68 104 0.0 3.0 0.00 0.00 0.00 32 1004.2
20260904081551 69 113 0.0 13.0 0.00 0.00 0.00 31 1004.3
20260904080038 70 101 1.0 10.0 0.00 0.00 0.00 31 1004.3
20260904074534 69 121 3.0 11.0 0.00 0.00 0.00 31 1004.5
20260904073032 67 105 0.0 0.0 0.00 0.00 0.00 35 1004.6
20260904071531 70 287 0.0 6.0 0.00 0.00 0.00 32 1004.6
20260904070025 69 148 0.0 10.0 0.00 0.00 0.00 32 1004.7
20260904064520 67 278 0.0 0.0 0.00 0.00 0.00 35 1004.8
20260904063019 68 302 0.0 0.0 0.00 0.00 0.00 34 1004.8
20260904061536 69 223 0.0 0.0 0.00 0.00 0.00 32 1004.9
20260904060118 68 293 0.0 0.0 0.00 0.00 0.00 33 1005.0
20260904054548 69 316 0.0 0.0 0.00 0.00 0.00 32 1004.9
20260904053047 68 342 0.0 0.0 0.00 0.00 0.00 33 1005.0
20260904051545 69 32 0.0 0.0 0.00 0.00 0.00 32 1004.9
20260904050045 69 27 0.0 0.0 0.00 0.00 0.00 32 1004.9
20260904044553 69 13 0.0 0.0 0.00 0.00 0.00 33 1005.0
20260904043100 69 4 0.0 0.0 0.00 0.00 0.00 33 1005.0
20260904041541 70 63 0.0 0.0 0.00 0.00 0.00 32 1005.0
20260904040040 70 46 0.0 0.0 0.00 0.00 0.00 31 1004.8
20260904034540 70 50 0.0 0.0 0.00 0.00 0.00 33 1004.8
20260904033040 71 60 0.0 0.0 0.00 0.00 0.00 32 1004.7
20260904031537 70 84 0.0 0.0 0.00 0.00 0.00 34 1004.7
20260904030036 70 17 0.0 0.0 0.00 0.00 0.00 37 1004.6
20260904024536 73 94 0.0 0.0 0.00 0.00 0.00 34 1004.5
20260904023038 73 5 0.0 0.0 0.00 0.00 0.00 32 1004.2
20260904021533 74 60 0.0 0.0 0.00 0.00 0.00 32 1004.0
20260904020032 75 53 0.0 0.0 0.00 0.00 0.00 34 1003.9
20260904014534 76 44 0.0 0.0 0.00 0.00 0.00 31 1003.7
20260904013034 79 78 0.0 0.0 0.00 0.00 0.00 30 1003.5
20260904011528 83 85 0.0 0.0 0.00 0.00 0.00 24 1003.5
20260904010029 85 328 0.0 0.0 0.00 0.00 0.00 18 1003.5
20260904004527 85 287 0.0 0.0 0.00 0.00 0.00 18 1003.4
20260904003027 86 245 0.0 0.0 0.00 0.00 0.00 18 1003.5